Location: Newark
(48.3453°N, 0.5589°E)
Time: 17:32:34
(UTC+00:00)

A-11 Canister half - Pass Details

Date: 06 December 2019
Orbit: 1516 x 1683 km, 47.2° (Epoch: 20 January)

Event Time Altitude Azimuth Distance (km) Brightness Sun altitude
Rises 17:44:36 0° 283° (WNW) 4,873 12.7 -16.0°
Reaches altitude 10° 17:47:43 10° 282° (WNW) 3,903 12.1 -16.5°
Maximum altitude 17:57:40 70° 202° (SSW) 1,770 9.4 -18.1°
Enters shadow 18:07:19 12° 122° (ESE) 3,813 10.7 -19.6°
Drops below altitude 10° 18:07:44 10° 121° (ESE) 3,941 - -19.7°
Sets 18:10:54 0° 120° (ESE) 4,922 - -20.2°
